| time (UTC) | temp F | wind direction | speed MPH | gust MPH | rain 1hr in | rain 24hr in | rain mn in | humidity % | barometer mb |
| 20260904040049 | 75 | 0 | 0.0 | 0.0 | 0.00 | 0.86 | 0.00 | 88 | 1011.9 |
| 20260904035527 | 75 | 156 | 0.0 | 0.0 | 0.00 | 0.86 | 0.86 | 88 | 1011.9 |
| 20260904035027 | 75 | 0 | 0.0 | 0.0 | 0.00 | 0.86 | 0.86 | 89 | 1011.9 |
| 20260904034551 | 75 | 0 | 0.0 | 0.0 | 0.00 | 0.86 | 0.86 | 89 | 1011.9 |
| 20260904034025 | 75 | 0 | 0.0 | 0.0 | 0.00 | 0.86 | 0.86 | 89 | 1012.1 |
| 20260904033529 | 75 | 0 | 0.0 | 0.0 | 0.00 | 0.86 | 0.86 | 89 | 1012.1 |
| 20260904033052 | 75 | 0 | 0.0 | 0.0 | 0.00 | 0.86 | 0.86 | 89 | 1012.3 |
| 20260904032530 | 75 | 0 | 0.0 | 0.0 | 0.00 | 0.86 | 0.86 | 89 | 1012.3 |
| 20260904032028 | 75 | 0 | 0.0 | 0.0 | 0.00 | 0.86 | 0.86 | 89 | 1012.4 |
| 20260904031551 | 75 | 0 | 0.0 | 0.0 | 0.00 | 0.86 | 0.86 | 88 | 1012.4 |
| 20260904031027 | 75 | 0 | 0.0 | 0.0 | 0.00 | 0.86 | 0.86 | 88 | 1012.5 |
| 20260904030526 | 75 | 0 | 0.0 | 0.0 | 0.00 | 0.86 | 0.86 | 88 | 1012.4 |
| 20260904030048 | 76 | 0 | 0.0 | 0.0 | 0.00 | 0.86 | 0.86 | 88 | 1012.5 |
| 20260904025551 | 76 | 0 | 0.0 | 0.0 | 0.00 | 0.86 | 0.86 | 88 | 1012.5 |
| 20260904025025 | 76 | 0 | 0.0 | 0.0 | 0.00 | 0.86 | 0.86 | 87 | 1012.6 |
| 20260904024550 | 76 | 0 | 0.0 | 0.0 | 0.00 | 0.86 | 0.86 | 86 | 1012.4 |
| 20260904024029 | 76 | 0 | 0.0 | 0.0 | 0.00 | 0.86 | 0.86 | 86 | 1012.2 |
| 20260904023525 | 76 | 0 | 0.0 | 0.0 | 0.00 | 0.86 | 0.86 | 86 | 1012.3 |
| 20260904023049 | 77 | 0 | 0.0 | 0.0 | 0.00 | 0.86 | 0.86 | 85 | 1012.4 |
| 20260904022526 | 77 | 0 | 0.0 | 1.0 | 0.00 | 0.86 | 0.86 | 84 | 1012.5 |
| 20260904022026 | 77 | 0 | 0.0 | 1.0 | 0.00 | 0.86 | 0.86 | 84 | 1012.5 |
| 20260904021556 | 77 | 156 | 0.0 | 1.0 | 0.00 | 0.86 | 0.86 | 84 | 1012.3 |
| 20260904021026 | 77 | 156 | 0.0 | 1.0 | 0.00 | 0.86 | 0.86 | 84 | 1012.4 |
| 20260904020527 | 77 | 0 | 0.0 | 1.0 | 0.00 | 0.86 | 0.86 | 83 | 1012.5 |
| 20260904020049 | 77 | 0 | 0.0 | 1.0 | 0.00 | 0.86 | 0.86 | 83 | 1012.6 |
| 20260904015528 | 77 | 0 | 0.0 | 1.0 | 0.00 | 0.86 | 0.86 | 83 | 1012.6 |
| 20260904015028 | 77 | 0 | 0.0 | 1.0 | 0.00 | 0.86 | 0.86 | 83 | 1012.8 |
| 20260904014616 | 77 | 0 | 0.0 | 0.0 | 0.00 | 0.86 | 0.86 | 83 | 1012.7 |
| 20260904014026 | 78 | 0 | 0.0 | 1.0 | 0.00 | 0.86 | 0.86 | 83 | 1012.9 |
| 20260904013526 | 78 | 0 | 0.0 | 1.0 | 0.00 | 0.86 | 0.86 | 83 | 1013.0 |
| 20260904013054 | 78 | 275 | 0.0 | 1.0 | 0.00 | 0.86 | 0.86 | 82 | 1012.9 |
| 20260904012529 | 78 | 250 | 0.0 | 1.0 | 0.00 | 0.86 | 0.86 | 81 | 1012.9 |
| 20260904012026 | 78 | 0 | 0.0 | 1.0 | 0.00 | 0.86 | 0.86 | 81 | 1013.0 |
| 20260904011547 | 78 | 0 | 0.0 | 1.0 | 0.00 | 0.86 | 0.86 | 80 | 1013.1 |
| 20260904011028 | 78 | 0 | 0.0 | 0.0 | 0.00 | 0.86 | 0.86 | 80 | 1013.1 |
| 20260904010527 | 79 | 0 | 0.0 | 0.0 | 0.00 | 0.86 | 0.86 | 80 | 1013.2 |
| 20260904010051 | 79 | 0 | 0.0 | 1.0 | 0.00 | 0.86 | 0.86 | 80 | 1013.2 |
| 20260904005528 | 79 | 0 | 0.0 | 2.0 | 0.00 | 0.86 | 0.86 | 79 | 1013.0 |
| 20260904005030 | 79 | 271 | 0.0 | 2.0 | 0.00 | 0.86 | 0.86 | 79 | 1013.0 |
| 20260904004548 | 79 | 241 | 0.0 | 4.0 | 0.00 | 0.86 | 0.86 | 79 | 1013.0 |
| 20260904004027 | 79 | 256 | 1.0 | 4.0 | 0.00 | 0.86 | 0.86 | 79 | 1013.0 |
| 20260904003527 | 79 | 278 | 0.0 | 3.0 | 0.00 | 0.86 | 0.86 | 79 | 1012.9 |
| 20260904003046 | 79 | 230 | 0.0 | 3.0 | 0.00 | 0.86 | 0.86 | 79 | 1012.8 |
| 20260904002529 | 79 | 254 | 0.0 | 3.0 | 0.00 | 0.86 | 0.86 | 79 | 1012.6 |
| 20260904002028 | 79 | 259 | 0.0 | 3.0 | 0.00 | 0.86 | 0.86 | 79 | 1012.8 |
| 20260904001546 | 79 | 271 | 0.0 | 3.0 | 0.00 | 0.86 | 0.86 | 79 | 1012.7 |
| 20260904001029 | 79 | 277 | 0.0 | 3.0 | 0.00 | 0.86 | 0.86 | 79 | 1012.7 |
| 20260904000526 | 80 | 0 | 0.0 | 2.0 | 0.00 | 0.86 | 0.86 | 79 | 1012.7 |
| 20260904000137 | 80 | 257 | 0.0 | 2.0 | 0.00 | 0.86 | 0.86 | 79 | 1012.6 |
| 20260903235530 | 80 | 269 | 0.0 | 2.0 | 0.00 | 0.86 | 0.86 | 79 | 1012.7 |
| 20260903235028 | 80 | 0 | 0.0 | 2.0 | 0.00 | 0.86 | 0.86 | 79 | 1012.7 |
| 20260903234551 | 80 | 0 | 0.0 | 3.0 | 0.00 | 0.86 | 0.86 | 79 | 1012.5 |
| 20260903234028 | 80 | 0 | 1.0 | 3.0 | 0.00 | 0.86 | 0.86 | 78 | 1012.5 |
| 20260903233526 | 81 | 279 | 0.0 | 1.0 | 0.00 | 0.86 | 0.86 | 78 | 1012.4 |
| 20260903233046 | 81 | 0 | 0.0 | 3.0 | 0.00 | 0.86 | 0.86 | 78 | 1012.4 |
| 20260903232530 | 81 | 271 | 0.0 | 3.0 | 0.00 | 0.86 | 0.86 | 78 | 1012.4 |
| 20260903232028 | 81 | 271 | 1.0 | 3.0 | 0.00 | 0.86 | 0.86 | 78 | 1012.4 |
| 20260903231554 | 81 | 0 | 1.0 | 3.0 | 0.00 | 0.86 | 0.86 | 78 | 1012.3 |
| 20260903231029 | 81 | 0 | 1.0 | 4.0 | 0.00 | 0.86 | 0.86 | 78 | 1012.4 |
| 20260903230531 | 82 | 296 | 0.0 | 7.0 | 0.00 | 0.86 | 0.86 | 77 | 1012.3 |
| 20260903230051 | 82 | 251 | 2.0 | 7.0 | 0.00 | 0.86 | 0.86 | 77 | 1012.2 |
| 20260903225531 | 82 | 261 | 1.0 | 7.0 | 0.00 | 0.86 | 0.86 | 77 | 1012.3 |
| 20260903225027 | 82 | 292 | 2.0 | 7.0 | 0.00 | 0.86 | 0.86 | 77 | 1012.1 |
| 20260903224557 | 83 | 268 | 0.0 | 9.0 | 0.00 | 0.86 | 0.86 | 76 | 1012.0 |
| 20260903224028 | 83 | 275 | 2.0 | 10.0 | 0.00 | 0.86 | 0.86 | 75 | 1012.0 |
| 20260903223530 | 83 | 317 | 3.0 | 10.0 | 0.00 | 0.86 | 0.86 | 75 | 1012.0 |
| 20260903223050 | 83 | 0 | 1.0 | 4.0 | 0.00 | 0.86 | 0.86 | 75 | 1011.9 |
| 20260903222528 | 83 | 273 | 1.0 | 6.0 | 0.00 | 0.86 | 0.86 | 75 | 1012.0 |
| 20260903222027 | 83 | 277 | 2.0 | 9.0 | 0.00 | 0.86 | 0.86 | 75 | 1012.0 |
| 20260903221551 | 83 | 240 | 2.0 | 9.0 | 0.00 | 0.86 | 0.86 | 75 | 1012.0 |
| 20260903221025 | 83 | 274 | 1.0 | 8.0 | 0.00 | 0.86 | 0.86 | 75 | 1012.1 |
| 20260903220528 | 83 | 286 | 1.0 | 9.0 | 0.00 | 0.86 | 0.86 | 76 | 1012.0 |
| 20260903220111 | 83 | 271 | 2.0 | 9.0 | 0.00 | 0.86 | 0.86 | 75 | 1012.0 |
| 20260903215525 | 83 | 242 | 4.0 | 9.0 | 0.00 | 0.86 | 0.86 | 74 | 1012.0 |
| 20260903215029 | 84 | 257 | 0.0 | 7.0 | 0.00 | 0.86 | 0.86 | 74 | 1011.9 |
| 20260903214551 | 84 | 291 | 1.0 | 7.0 | 0.00 | 0.86 | 0.86 | 74 | 1011.8 |
| 20260903214028 | 84 | 271 | 1.0 | 6.0 | 0.00 | 0.86 | 0.86 | 75 | 1012.0 |
| 20260903213529 | 84 | 232 | 2.0 | 10.0 | 0.00 | 0.86 | 0.86 | 73 | 1011.9 |
| 20260903213051 | 84 | 284 | 3.0 | 10.0 | 0.00 | 0.86 | 0.86 | 73 | 1011.9 |
| 20260903212528 | 84 | 284 | 2.0 | 11.0 | 0.00 | 0.86 | 0.86 | 74 | 1011.9 |
| 20260903212028 | 84 | 250 | 4.0 | 11.0 | 0.00 | 0.86 | 0.86 | 74 | 1011.8 |
| 20260903211547 | 84 | 286 | 3.0 | 12.0 | 0.00 | 0.86 | 0.86 | 75 | 1011.9 |
| 20260903211030 | 84 | 271 | 1.0 | 13.0 | 0.00 | 0.86 | 0.86 | 75 | 1011.9 |
| 20260903210526 | 84 | 271 | 5.0 | 13.0 | 0.00 | 0.86 | 0.86 | 74 | 1011.9 |
| 20260903205527 | 84 | 265 | 3.0 | 14.0 | 0.00 | 0.86 | 0.86 | 73 | 1012.0 |
| 20260903205028 | 84 | 305 | 2.0 | 8.0 | 0.00 | 0.86 | 0.86 | 74 | 1012.0 |
| 20260903204548 | 84 | 273 | 3.0 | 9.0 | 0.00 | 0.86 | 0.86 | 73 | 1012.0 |
| 20260903204028 | 84 | 242 | 2.0 | 9.0 | 0.00 | 0.86 | 0.86 | 73 | 1012.0 |
| 20260903203541 | 84 | 278 | 3.0 | 11.0 | 0.00 | 0.86 | 0.86 | 72 | 1012.0 |
| 20260903203048 | 84 | 253 | 2.0 | 12.0 | 0.00 | 0.86 | 0.86 | 73 | 1012.1 |
| 20260903202525 | 85 | 261 | 3.0 | 12.0 | 0.00 | 0.86 | 0.86 | 72 | 1012.1 |
| 20260903202025 | 85 | 31 | 4.0 | 12.0 | 0.00 | 0.86 | 0.86 | 71 | 1012.1 |
| 20260903201548 | 85 | 302 | 3.0 | 7.0 | 0.00 | 0.86 | 0.86 | 71 | 1012.2 |
| 20260903201025 | 85 | 199 | 1.0 | 7.0 | 0.00 | 0.86 | 0.86 | 71 | 1012.4 |
| 20260903200525 | 85 | 294 | 1.0 | 8.0 | 0.00 | 0.86 | 0.86 | 72 | 1012.2 |
| 20260903200047 | 85 | 290 | 1.0 | 10.0 | 0.00 | 0.86 | 0.86 | 71 | 1012.4 |
| 20260903195525 | 85 | 273 | 3.0 | 10.0 | 0.00 | 0.86 | 0.86 | 71 | 1012.4 |
| 20260903195029 | 85 | 190 | 3.0 | 9.0 | 0.00 | 0.86 | 0.86 | 71 | 1012.4 |
| 20260903194557 | 85 | 317 | 2.0 | 7.0 | 0.00 | 0.86 | 0.86 | 71 | 1012.5 |
| 20260903194024 | 85 | 261 | 2.0 | 10.0 | 0.00 | 0.86 | 0.86 | 71 | 1012.5 |
| 20260903193524 | 85 | 292 | 3.0 | 10.0 | 0.00 | 0.86 | 0.86 | 70 | 1012.7 |
| 20260903193055 | 84 | 260 | 2.0 | 13.0 | 0.00 | 0.86 | 0.86 | 72 | 1012.7 |
| 20260903192524 | 84 | 346 | 3.0 | 13.0 | 0.00 | 0.86 | 0.86 | 71 | 1012.9 |
| 20260903192025 | 84 | 248 | 3.0 | 10.0 | 0.00 | 0.86 | 0.86 | 72 | 1012.9 |
| 20260903191549 | 84 | 290 | 3.0 | 9.0 | 0.00 | 0.86 | 0.86 | 72 | 1013.1 |
| 20260903191027 | 84 | 281 | 2.0 | 12.0 | 0.00 | 0.86 | 0.86 | 73 | 1013.2 |
| 20260903190524 | 84 | 261 | 3.0 | 12.0 | 0.00 | 0.86 | 0.86 | 71 | 1013.3 |
| 20260903190059 | 84 | 297 | 3.0 | 8.0 | 0.00 | 0.86 | 0.86 | 72 | 1013.4 |
| 20260903185524 | 85 | 245 | 2.0 | 9.0 | 0.00 | 0.94 | 0.86 | 72 | 1013.4 |
| 20260903185023 | 85 | 259 | 1.0 | 9.0 | 0.00 | 0.94 | 0.86 | 72 | 1013.6 |
| 20260903184552 | 84 | 285 | 3.0 | 10.0 | 0.00 | 0.94 | 0.86 | 73 | 1013.2 |
| 20260903184026 | 84 | 273 | 4.0 | 10.0 | 0.00 | 0.94 | 0.86 | 72 | 1013.2 |
| 20260903183530 | 84 | 255 | 3.0 | 11.0 | 0.00 | 0.94 | 0.86 | 72 | 1013.2 |
| 20260903183047 | 84 | 307 | 2.0 | 11.0 | 0.00 | 0.94 | 0.86 | 73 | 1013.2 |
| 20260903182524 | 84 | 264 | 3.0 | 11.0 | 0.00 | 0.94 | 0.86 | 72 | 1013.4 |
| 20260903182025 | 84 | 305 | 3.0 | 11.0 | 0.00 | 0.94 | 0.86 | 73 | 1013.3 |
| 20260903181550 | 84 | 294 | 4.0 | 8.0 | 0.00 | 0.94 | 0.86 | 72 | 1013.3 |
| 20260903181027 | 84 | 264 | 1.0 | 7.0 | 0.00 | 0.94 | 0.86 | 75 | 1013.4 |
| 20260903180524 | 83 | 261 | 1.0 | 7.0 | 0.00 | 0.94 | 0.86 | 76 | 1013.3 |
| 20260903180056 | 83 | 302 | 1.0 | 13.0 | 0.00 | 0.94 | 0.86 | 75 | 1013.4 |
| 20260903175524 | 83 | 296 | 4.0 | 13.0 | 0.00 | 0.94 | 0.86 | 75 | 1013.6 |
| 20260903175027 | 83 | 279 | 5.0 | 12.0 | 0.00 | 0.94 | 0.86 | 76 | 1013.7 |
| 20260903174550 | 82 | 242 | 4.0 | 11.0 | 0.00 | 0.94 | 0.86 | 75 | 1013.7 |
| 20260903174025 | 82 | 262 | 3.0 | 9.0 | 0.00 | 0.94 | 0.86 | 76 | 1013.8 |
| 20260903173524 | 82 | 273 | 3.0 | 14.0 | 0.00 | 0.94 | 0.86 | 76 | 1013.9 |
| 20260903173126 | 82 | 252 | 5.0 | 14.0 | 0.00 | 0.94 | 0.86 | 77 | 1014.0 |
| 20260903172528 | 82 | 274 | 3.0 | 10.0 | 0.00 | 0.94 | 0.86 | 78 | 1014.2 |
| 20260903172025 | 82 | 303 | 2.0 | 10.0 | 0.00 | 0.94 | 0.86 | 78 | 1014.4 |
| 20260903171546 | 82 | 271 | 3.0 | 10.0 | 0.00 | 0.94 | 0.86 | 77 | 1014.4 |
| 20260903171025 | 82 | 294 | 4.0 | 15.0 | 0.00 | 0.94 | 0.86 | 76 | 1014.4 |
| 20260903170525 | 83 | 293 | 3.0 | 15.0 | 0.00 | 0.94 | 0.86 | 77 | 1014.4 |
| 20260903170059 | 83 | 257 | 1.0 | 8.0 | 0.00 | 0.94 | 0.86 | 76 | 1014.5 |
| 20260903165532 | 82 | 279 | 1.0 | 8.0 | 0.00 | 0.94 | 0.86 | 77 | 1014.5 |
| 20260903165029 | 83 | 309 | 2.0 | 8.0 | 0.00 | 0.94 | 0.86 | 77 | 1014.6 |
| 20260903164557 | 82 | 0 | 1.0 | 8.0 | 0.00 | 0.94 | 0.86 | 77 | 1014.7 |
| 20260903164027 | 82 | 296 | 3.0 | 10.0 | 0.00 | 0.94 | 0.86 | 77 | 1014.8 |
| 20260903163531 | 82 | 300 | 2.0 | 10.0 | 0.00 | 0.94 | 0.86 | 78 | 1015.1 |
| 20260903163101 | 81 | 288 | 2.0 | 9.0 | 0.00 | 0.94 | 0.86 | 79 | 1015.3 |
| 20260903162530 | 82 | 293 | 2.0 | 9.0 | 0.00 | 0.94 | 0.86 | 79 | 1015.2 |
| 20260903162028 | 82 | 299 | 3.0 | 9.0 | 0.00 | 0.94 | 0.86 | 79 | 1015.2 |
| 20260903161603 | 82 | 250 | 3.0 | 9.0 | 0.00 | 0.94 | 0.86 | 80 | 1015.2 |
| 20260903161029 | 82 | 277 | 3.0 | 10.0 | 0.00 | 0.94 | 0.86 | 79 | 1015.1 |
| 20260903160533 | 82 | 280 | 3.0 | 10.0 | 0.00 | 0.94 | 0.86 | 80 | 1015.1 |
| 20260903160101 | 82 | 296 | 2.0 | 12.0 | 0.00 | 0.94 | 0.86 | 78 | 1015.2 |
| 20260903155529 | 82 | 290 | 4.0 | 12.0 | 0.00 | 0.94 | 0.86 | 79 | 1015.0 |
| 20260903155025 | 82 | 238 | 3.0 | 8.0 | 0.00 | 0.94 | 0.86 | 80 | 1015.1 |
| 20260903154547 | 81 | 296 | 2.0 | 9.0 | 0.00 | 0.94 | 0.86 | 81 | 1015.0 |
| 20260903154024 | 81 | 292 | 2.0 | 9.0 | 0.00 | 0.94 | 0.86 | 81 | 1015.1 |
| 20260903153525 | 81 | 257 | 3.0 | 7.0 | 0.00 | 0.94 | 0.86 | 81 | 1015.0 |
| 20260903153047 | 81 | 271 | 2.0 | 7.0 | 0.00 | 0.94 | 0.86 | 81 | 1015.2 |
| 20260903152529 | 81 | 222 | 2.0 | 5.0 | 0.00 | 0.94 | 0.86 | 80 | 1015.1 |
| 20260903152028 | 81 | 298 | 1.0 | 9.0 | 0.00 | 0.94 | 0.86 | 82 | 1015.1 |
| 20260903151559 | 81 | 274 | 2.0 | 10.0 | 0.00 | 0.94 | 0.86 | 82 | 1015.0 |
| 20260903151028 | 80 | 276 | 4.0 | 10.0 | 0.00 | 0.94 | 0.86 | 81 | 1015.1 |
| 20260903150527 | 80 | 302 | 3.0 | 10.0 | 0.00 | 0.94 | 0.86 | 82 | 1015.1 |
| 20260903150110 | 79 | 296 | 2.0 | 10.0 | 0.00 | 0.94 | 0.86 | 83 | 1015.0 |
| 20260903145527 | 80 | 281 | 2.0 | 5.0 | 0.00 | 0.94 | 0.86 | 83 | 1015.0 |
| 20260903145028 | 79 | 327 | 1.0 | 7.0 | 0.00 | 0.94 | 0.86 | 84 | 1014.9 |
| 20260903144549 | 79 | 234 | 1.0 | 8.0 | 0.00 | 0.94 | 0.86 | 84 | 1014.9 |
| 20260903144027 | 78 | 274 | 2.0 | 8.0 | 0.00 | 0.94 | 0.86 | 85 | 1015.0 |
| 20260903143528 | 78 | 271 | 2.0 | 7.0 | 0.00 | 0.94 | 0.86 | 85 | 1015.0 |
| 20260903143100 | 78 | 292 | 2.0 | 12.0 | 0.00 | 0.94 | 0.86 | 85 | 1015.1 |
| 20260903142531 | 78 | 211 | 3.0 | 12.0 | 0.00 | 0.94 | 0.86 | 85 | 1015.2 |
| 20260903142025 | 77 | 252 | 3.0 | 11.0 | 0.00 | 0.94 | 0.86 | 85 | 1015.1 |
| 20260903141558 | 77 | 245 | 3.0 | 12.0 | 0.00 | 0.94 | 0.86 | 85 | 1015.0 |
| 20260903141028 | 77 | 259 | 3.0 | 12.0 | 0.00 | 0.94 | 0.86 | 85 | 1015.1 |
| 20260903140528 | 77 | 279 | 2.0 | 4.0 | 0.00 | 0.94 | 0.86 | 86 | 1014.9 |
| 20260903140050 | 77 | 309 | 1.0 | 11.0 | 0.00 | 0.94 | 0.86 | 88 | 1015.0 |
| 20260903135528 | 76 | 274 | 3.0 | 11.0 | 0.00 | 0.94 | 0.86 | 87 | 1014.6 |
| 20260903135025 | 76 | 251 | 4.0 | 10.0 | 0.00 | 0.94 | 0.86 | 88 | 1014.4 |
| 20260903134546 | 76 | 234 | 2.0 | 5.0 | 0.00 | 0.94 | 0.86 | 88 | 1014.1 |
| 20260903134027 | 76 | 282 | 1.0 | 8.0 | 0.00 | 0.94 | 0.86 | 89 | 1014.2 |
| 20260903133525 | 75 | 115 | 1.0 | 8.0 | 0.00 | 0.94 | 0.86 | 91 | 1014.2 |
| 20260903133047 | 74 | 0 | 1.0 | 4.0 | 0.00 | 0.94 | 0.86 | 91 | 1014.3 |
| 20260903132527 | 74 | 246 | 1.0 | 4.0 | 0.00 | 0.94 | 0.86 | 91 | 1014.4 |
| 20260903132025 | 74 | 242 | 0.0 | 3.0 | 0.00 | 0.94 | 0.86 | 92 | 1014.4 |
| 20260903131547 | 73 | 255 | 0.0 | 3.0 | 0.00 | 0.94 | 0.86 | 93 | 1014.7 |
| 20260903131030 | 73 | 259 | 0.0 | 8.0 | 0.01 | 0.94 | 0.86 | 93 | 1014.7 |
| 20260903130529 | 73 | 304 | 2.0 | 8.0 | 0.01 | 0.94 | 0.86 | 93 | 1014.6 |
| 20260903130049 | 73 | 259 | 1.0 | 8.0 | 0.01 | 0.94 | 0.86 | 94 | 1014.5 |
| 20260903125528 | 72 | 283 | 1.0 | 6.0 | 0.01 | 0.94 | 0.86 | 95 | 1014.9 |
| 20260903125029 | 72 | 223 | 2.0 | 6.0 | 0.01 | 0.94 | 0.86 | 95 | 1014.6 |
| 20260903124600 | 71 | 259 | 1.0 | 5.0 | 0.01 | 0.94 | 0.86 | 95 | 1014.7 |
| 20260903124028 | 71 | 271 | 0.0 | 3.0 | 0.01 | 0.94 | 0.86 | 95 | 1014.5 |
| 20260903123529 | 71 | 22 | 1.0 | 10.0 | 0.01 | 0.94 | 0.86 | 95 | 1014.5 |
| 20260903123046 | 71 | 240 | 1.0 | 10.0 | 0.01 | 0.94 | 0.86 | 95 | 1013.8 |
| 20260903122528 | 71 | 202 | 3.0 | 10.0 | 0.01 | 0.94 | 0.86 | 95 | 1013.7 |
| 20260903122025 | 71 | 190 | 2.0 | 7.0 | 0.01 | 0.94 | 0.86 | 96 | 1014.0 |
| 20260903121554 | 71 | 193 | 2.0 | 9.0 | 0.01 | 0.94 | 0.86 | 96 | 1015.0 |
| 20260903121025 | 71 | 112 | 3.0 | 9.0 | 0.00 | 0.93 | 0.85 | 96 | 1015.4 |
| 20260903120527 | 71 | 286 | 2.0 | 8.0 | 0.00 | 0.93 | 0.85 | 96 | 1015.7 |
| 20260903120051 | 71 | 220 | 2.0 | 4.0 | 0.00 | 0.93 | 0.85 | 96 | 1016.1 |
| 20260903115526 | 71 | 285 | 1.0 | 3.0 | 0.00 | 0.93 | 0.85 | 96 | 1016.0 |
| 20260903115028 | 71 | 217 | 1.0 | 3.0 | 0.00 | 0.93 | 0.85 | 96 | 1015.8 |
| 20260903114609 | 71 | 238 | 1.0 | 4.0 | 0.00 | 0.93 | 0.85 | 96 | 1015.9 |
| 20260903114027 | 71 | 234 | 2.0 | 4.0 | 0.00 | 0.93 | 0.85 | 96 | 1016.1 |
| 20260903113531 | 71 | 253 | 1.0 | 2.0 | 0.00 | 0.93 | 0.85 | 96 | 1016.4 |
| 20260903113046 | 71 | 269 | 0.0 | 2.0 | 0.00 | 0.93 | 0.85 | 96 | 1016.2 |
| 20260903112525 | 71 | 267 | 0.0 | 2.0 | 0.00 | 0.93 | 0.85 | 96 | 1016.2 |
| 20260903112031 | 70 | 0 | 0.0 | 5.0 | 0.00 | 0.93 | 0.85 | 96 | 1016.2 |
| 20260903111550 | 70 | 0 | 0.0 | 5.0 | 0.00 | 0.93 | 0.85 | 96 | 1016.1 |
| 20260903111029 | 70 | 0 | 1.0 | 5.0 | 0.00 | 0.93 | 0.85 | 96 | 1016.3 |
| 20260903110528 | 70 | 252 | 0.0 | 3.0 | 0.00 | 0.93 | 0.85 | 96 | 1016.2 |
| 20260903110050 | 70 | 280 | 0.0 | 3.0 | 0.00 | 0.93 | 0.85 | 96 | 1016.2 |
| 20260903105528 | 70 | 272 | 1.0 | 6.0 | 0.00 | 0.93 | 0.85 | 96 | 1016.2 |
| 20260903105028 | 70 | 249 | 0.0 | 6.0 | 0.00 | 0.93 | 0.85 | 96 | 1015.7 |
| 20260903104548 | 70 | 279 | 1.0 | 3.0 | 0.00 | 0.93 | 0.85 | 96 | 1015.7 |
| 20260903104028 | 70 | 281 | 0.0 | 2.0 | 0.00 | 0.93 | 0.85 | 96 | 1015.6 |
| 20260903103525 | 70 | 254 | 0.0 | 3.0 | 0.00 | 0.93 | 0.85 | 96 | 1015.4 |
| 20260903103052 | 70 | 210 | 0.0 | 3.0 | 0.02 | 0.93 | 0.85 | 96 | 1015.3 |
| 20260903102525 | 70 | 298 | 1.0 | 3.0 | 0.02 | 0.93 | 0.85 | 96 | 1015.4 |
| 20260903102027 | 70 | 250 | 0.0 | 3.0 | 0.03 | 0.93 | 0.85 | 96 | 1015.7 |
| 20260903101548 | 70 | 196 | 1.0 | 3.0 | 0.05 | 0.93 | 0.85 | 96 | 1015.8 |
| 20260903101028 | 70 | 233 | 0.0 | 3.0 | 0.07 | 0.93 | 0.85 | 96 | 1015.9 |
| 20260903100527 | 70 | 0 | 0.0 | 3.0 | 0.12 | 0.93 | 0.85 | 96 | 1015.9 |
| 20260903100057 | 70 | 230 | 0.0 | 2.0 | 0.23 | 0.93 | 0.85 | 96 | 1016.1 |
| 20260903095527 | 70 | 175 | 0.0 | 2.0 | 0.37 | 0.93 | 0.85 | 96 | 1016.0 |
| 20260903095028 | 70 | 157 | 0.0 | 2.0 | 0.39 | 0.93 | 0.85 | 96 | 1016.2 |
| 20260903094556 | 70 | 226 | 1.0 | 2.0 | 0.39 | 0.93 | 0.85 | 96 | 1016.3 |
| 20260903094028 | 70 | 0 | 0.0 | 2.0 | 0.39 | 0.93 | 0.85 | 96 | 1016.6 |
| 20260903093534 | 70 | 0 | 0.0 | 2.0 | 0.38 | 0.92 | 0.84 | 96 | 1016.5 |
| 20260903093124 | 70 | 252 | 0.0 | 3.0 | 0.37 | 0.91 | 0.83 | 96 | 1016.5 |
| 20260903092529 | 70 | 208 | 1.0 | 3.0 | 0.39 | 0.91 | 0.83 | 96 | 1016.4 |
| 20260903092028 | 70 | 155 | 1.0 | 2.0 | 0.39 | 0.90 | 0.82 | 96 | 1016.6 |
| 20260903091553 | 70 | 139 | 0.0 | 2.0 | 0.37 | 0.88 | 0.80 | 96 | 1017.1 |
| 20260903091028 | 70 | 0 | 0.0 | 6.0 | 0.36 | 0.86 | 0.78 | 96 | 1017.4 |
| 20260903090528 | 70 | 337 | 0.0 | 8.0 | 0.30 | 0.80 | 0.72 | 96 | 1018.0 |
| 20260903090048 | 70 | 288 | 1.0 | 9.0 | 0.18 | 0.68 | 0.60 | 96 | 1018.5 |
| 20260903085528 | 70 | 12 | 4.0 | 9.0 | 0.04 | 0.54 | 0.46 | 96 | 1018.3 |
| 20260903085027 | 70 | 330 | 2.0 | 9.0 | 0.04 | 0.54 | 0.46 | 96 | 1017.3 |
| 20260903084547 | 70 | 344 | 1.0 | 1.0 | 0.04 | 0.54 | 0.46 | 96 | 1016.6 |
| 20260903084025 | 70 | 0 | 0.0 | 2.0 | 0.04 | 0.54 | 0.46 | 96 | 1016.1 |
| 20260903083528 | 70 | 0 | 0.0 | 2.0 | 0.04 | 0.54 | 0.46 | 96 | 1016.1 |
| 20260903083041 | 70 | 99 | 0.0 | 0.0 | 0.04 | 0.54 | 0.46 | 96 | 1015.9 |
| 20260903082531 | 70 | 155 | 0.0 | 1.0 | 0.02 | 0.52 | 0.44 | 96 | 1015.8 |
| 20260903082028 | 70 | 0 | 0.0 | 1.0 | 0.01 | 0.51 | 0.43 | 96 | 1016.3 |
| 20260903081550 | 70 | 155 | 0.0 | 1.0 | 0.01 | 0.51 | 0.43 | 96 | 1016.1 |
| 20260903081030 | 70 | 155 | 0.0 | 2.0 | 0.00 | 0.50 | 0.42 | 96 | 1016.1 |
| 20260903080532 | 70 | 0 | 1.0 | 2.0 | 0.00 | 0.50 | 0.42 | 96 | 1015.9 |
| 20260903080046 | 70 | 185 | 0.0 | 1.0 | 0.01 | 0.50 | 0.42 | 96 | 1016.0 |
| 20260903075528 | 70 | 186 | 0.0 | 1.0 | 0.02 | 0.50 | 0.42 | 96 | 1016.1 |
| 20260903075031 | 70 | 0 | 0.0 | 1.0 | 0.04 | 0.50 | 0.42 | 96 | 1016.3 |
| 20260903074547 | 70 | 0 | 0.0 | 2.0 | 0.04 | 0.50 | 0.42 | 96 | 1016.2 |
| 20260903074028 | 70 | 0 | 0.0 | 2.0 | 0.05 | 0.50 | 0.42 | 96 | 1016.1 |
| 20260903073528 | 70 | 0 | 0.0 | 2.0 | 0.05 | 0.50 | 0.42 | 96 | 1016.0 |
| 20260903073053 | 70 | 0 | 0.0 | 2.0 | 0.06 | 0.50 | 0.42 | 96 | 1015.9 |
| 20260903072527 | 70 | 0 | 0.0 | 2.0 | 0.06 | 0.50 | 0.42 | 96 | 1016.0 |
| 20260903072027 | 70 | 124 | 0.0 | 2.0 | 0.07 | 0.50 | 0.42 | 95 | 1016.1 |
| 20260903071615 | 70 | 0 | 1.0 | 2.0 | 0.12 | 0.50 | 0.42 | 95 | 1016.0 |
| 20260903071029 | 70 | 209 | 0.0 | 3.0 | 0.30 | 0.50 | 0.42 | 95 | 1016.1 |
| 20260903070531 | 70 | 0 | 0.0 | 3.0 | 0.42 | 0.50 | 0.42 | 95 | 1016.1 |
| 20260903070100 | 70 | 68 | 0.0 | 3.0 | 0.41 | 0.49 | 0.41 | 95 | 1016.0 |
| 20260903065528 | 70 | 144 | 1.0 | 3.0 | 0.39 | 0.47 | 0.39 | 95 | 1016.2 |
| 20260903065027 | 70 | 215 | 1.0 | 4.0 | 0.38 | 0.46 | 0.38 | 95 | 1016.3 |
| 20260903064546 | 70 | 166 | 1.0 | 4.0 | 0.38 | 0.46 | 0.38 | 95 | 1016.4 |
| 20260903064028 | 70 | 115 | 1.0 | 4.0 | 0.37 | 0.45 | 0.37 | 95 | 1016.3 |
| 20260903063528 | 70 | 103 | 1.0 | 4.0 | 0.37 | 0.45 | 0.37 | 95 | 1016.7 |
| 20260903063103 | 70 | 109 | 0.0 | 4.0 | 0.36 | 0.44 | 0.36 | 95 | 1017.4 |
| 20260903062527 | 70 | 49 | 0.0 | 6.0 | 0.35 | 0.43 | 0.35 | 95 | 1017.7 |
| 20260903062029 | 70 | 54 | 1.0 | 6.0 | 0.34 | 0.42 | 0.34 | 94 | 1017.9 |
| 20260903061550 | 70 | 329 | 1.0 | 5.0 | 0.28 | 0.36 | 0.28 | 94 | 1018.3 |
| 20260903061029 | 70 | 350 | 1.0 | 6.0 | 0.08 | 0.16 | 0.08 | 94 | 1018.6 |
| 20260903060529 | 71 | 311 | 1.0 | 6.0 | 0.00 | 0.08 | 0.00 | 94 | 1018.2 |
| 20260903060050 | 70 | 51 | 3.0 | 6.0 | 0.00 | 0.08 | 0.00 | 94 | 1017.4 |
| 20260903055529 | 71 | 42 | 2.0 | 4.0 | 0.00 | 0.08 | 0.00 | 94 | 1016.9 |
| 20260903055026 | 71 | 0 | 0.0 | 3.0 | 0.00 | 0.08 | 0.00 | 94 | 1017.0 |
| 20260903054549 | 71 | 37 | 1.0 | 3.0 | 0.00 | 0.08 | 0.00 | 94 | 1016.8 |
| 20260903054028 | 71 | 49 | 1.0 | 3.0 | 0.00 | 0.08 | 0.00 | 94 | 1016.5 |
| 20260903053528 | 71 | 46 | 1.0 | 2.0 | 0.00 | 0.08 | 0.00 | 94 | 1016.7 |
| 20260903053046 | 71 | 101 | 0.0 | 1.0 | 0.00 | 0.08 | 0.00 | 94 | 1016.8 |
| 20260903052530 | 71 | 0 | 0.0 | 1.0 | 0.00 | 0.08 | 0.00 | 94 | 1016.8 |
| 20260903052029 | 71 | 0 | 0.0 | 2.0 | 0.00 | 0.08 | 0.00 | 94 | 1016.7 |
| 20260903051546 | 71 | 81 | 0.0 | 2.0 | 0.00 | 0.08 | 0.00 | 94 | 1016.7 |
| 20260903051027 | 71 | 55 | 0.0 | 2.0 | 0.00 | 0.08 | 0.00 | 94 | 1016.5 |
| 20260903050527 | 71 | 69 | 0.0 | 2.0 | 0.00 | 0.08 | 0.00 | 93 | 1016.7 |
| 20260903045529 | 71 | 0 | 0.0 | 2.0 | 0.00 | 0.08 | 0.00 | 93 | 1016.6 |
| 20260903045028 | 71 | 88 | 0.0 | 2.0 | 0.00 | 0.08 | 0.00 | 93 | 1016.9 |
| 20260903044558 | 71 | 55 | 0.0 | 2.0 | 0.00 | 0.08 | 0.00 | 93 | 1016.9 |
| 20260903044028 | 71 | 59 | 0.0 | 2.0 | 0.00 | 0.08 | 0.00 | 93 | 1017.0 |
| 20260903043528 | 71 | 101 | 0.0 | 2.0 | 0.00 | 0.08 | 0.00 | 93 | 1016.9 |
| 20260903043047 | 71 | 88 | 1.0 | 2.0 | 0.00 | 0.08 | 0.00 | 93 | 1017.0 |
| 20260903042530 | 71 | 87 | 0.0 | 2.0 | 0.00 | 0.08 | 0.00 | 93 | 1017.2 |
| 20260903042025 | 71 | 50 | 0.0 | 2.0 | 0.00 | 0.08 | 0.00 | 93 | 1017.3 |
| 20260903041558 | 71 | 0 | 0.0 | 1.0 | 0.00 | 0.08 | 0.00 | 93 | 1017.4 |
| 20260903041028 | 71 | 0 | 0.0 | 1.0 | 0.00 | 0.08 | 0.00 | 93 | 1017.3 |
| 20260903040528 | 71 | 69 | 0.0 | 1.0 | 0.00 | 0.08 | 0.00 | 93 | 1017.5 |